SCP
1 1 1 1 1 1 2 2 2 2 3 3 2 1 1 1 1 1 1 1 1 1 1 0 0 0 0 0 0 0 0 0 0 0 0 0 0 0 0 0 0 0 0
1 2 1 1 1 1 1 2 2 2 2 3 2 2 1 1 1 1 1 1 1 1 1 0 0 0 0 0 0 1 0 0 0 0 0 0 0 0 0 0 0 0 0
1 2 2 1 1 1 1 1 1 1 2 2 2 2 1 1 1 1 1 1 1 1 1 1 0 0 0 0 0 1 1 1 0 0 0 0 0 0 0 0 0 0 0
1 1 1 1 1 1 1 1 1 1 1 1 2 2 2 2 1 1 1 1 1 1 1 1 0 0 0 0 0 1 1 1 0 0 0 0 0 0 0 0 0 0 0
1 1 1 1 1 2 2 2 1 1 1 1 2 2 2 2 1 1 1 1 1 1 1 1 1 0 0 0 0 0 0 0 0 0 0 0 0 0 0 0 0 0 0
2 2 2 2 2 2 2 2 2 2 1 1 2 2 2 2 2 1 1 1 1 1 1 1 1 1 0 0 0 0 0 0 0 0 0 0 0 0 0 0 0 0 0
2 2 2 2 2 2 3 3 3 2 2 2 2 2 2 2 2 2 1 1 1 1 1 1 1 1 0 0 0 1 1 1 1 1 1 1 1 1 1 1 1 1 0
2 2 2 3 3 3 3 3 3 3 3 2 2 2 2 2 2 2 1 1 1 1 1 1 1 1 0 0 1 1 1 1 1 1 1 1 1 1 1 1 1 1 1
2 2 3 3 3 3 3 3 3 3 3 3 2 2 2 2 2 2 1 1 1 1 1 1 1 1 0 0 1 1 1 1 1 1 1 1 1 2 1 1 1 1 1
3 3 3 4 3 3 2 3 3 4 3 3 3 2 2 2 2 2 2 2 1 1 1 1 1 1 1 1 1 1 1 1 1 1 1 1 1 1 1 1 1 1 1
3 3 3 3 3 2 2 2 3 4 4 3 3 3 2 2 1 1 2 2 2 1 1 1 1 1 1 1 1 1 1 1 1 1 1 1 1 1 1 1 1 1 1
3 3 3 3 2 2 2 2 3 3 4 3 3 3 2 2 1 1 2 2 2 1 1 1 1 1 1 1 1 1 1 2 1 1 1 1 1 1 1 1 1 1 1
3 3 3 2 2 2 2 2 2 3 3 3 3 3 2 2 1 1 1 1 1 1 1 1 1 1 1 1 1 1 2 2 1 1 1 1 1 1 1 1 1 1 1
2 2 2 2 2 2 2 3 3 3 3 3 3 3 3 2 2 1 1 1 1 1 1 1 1 1 1 1 1 1 2 2 1 1 1 1 1 1 1 0 1 1 1
2 2 2 1 1 2 2 3 4 4 3 3 3 3 3 3 2 2 2 1 1 1 2 2 2 1 1 1 1 2 2 2 2 1 1 1 1 0 0 0 0 0 1
2 2 1 1 1 1 3 4 5 5 4 3 3 3 3 3 2 2 2 2 1 1 2 2 2 2 2 2 2 2 2 3 3 2 2 1 1 1 0 0 0 0 1
2 2 1 1 1 2 3 5 6 5 4 4 4 3 3 3 3 3 3 2 2 2 2 2 2 2 2 2 1 2 2 3 3 3 3 3 2 1 1 1 1 1 1
3 3 2 1 1 2 3 4 5 5 4 3 4 4 4 3 3 3 3 3 3 2 2 2 2 2 2 2 1 1 2 3 3 4 4 4 4 3 2 1 1 1 1
4 3 3 2 2 2 3 3 4 5 4 3 4 5 5 5 4 3 3 3 3 2 2 2 3 3 3 2 1 1 2 3 4 4 4 5 5 5 3 2 2 2 1
3 3 3 2 2 2 2 3 4 4 4 4 4 5 5 6 5 5 4 3 3 3 3 3 3 3 3 3 2 1 2 3 4 5 5 5 5 4 3 3 3 3 3
2 2 2 2 2 2 2 3 4 4 4 4 4 5 5 6 7 7 6 5 4 4 4 4 4 4 4 4 3 2 3 4 4 5 6 6 5 3 2 3 4 3 3
2 2 2 2 2 2 3 3 3 3 4 4 4 4 4 5 7 8 8 7 5 5 5 5 4 4 5 5 4 3 2 3 4 5 6 6 5 2 1 2 3 3 2
3 2 2 2 2 2 3 3 3 3 4 4 4 4 3 4 6 8 9 8 6 5 5 5 4 5 5 5 5 4 2 2 3 4 5 4 3 2 1 1 2 2 2
5 4 2 2 2 2 3 3 4 4 4 4 4 3 3 4 5 7 9 9 8 6 5 5 4 5 5 5 5 4 4 3 3 4 4 3 3 2 2 2 2 2 3
5 5 4 3 2 2 3 3 4 4 4 3 3 3 3 3 4 5 7 9 8 6 5 4 5 5 5 5 4 4 4 4 4 4 4 4 5 4 4 4 4 3 3
5 6 5 3 2 2 2 3 4 5 4 3 2 3 3 3 3 4 5 6 6 5 4 4 5 5 5 4 3 3 3 3 3 4 4 6 6 6 5 5 4 4 4
Wind_Speed
5 4 4 5 5 5 5 5 5 5 4 3 2 2 1 1 0 0 0 1 1 2 2 1 1 2 2 1 2 1 2 2 1 2 2 2 2 1 1 0 0 1 1
3 3 4 5 6 6 7 6 6 6 5 4 3 2 2 1 1 0 1 1 1 2 2 2 1 1 2 2 2 2 1 1 2 1 1 2 2 2 1 0 0 1 0
6 5 5 5 6 6 7 7 7 6 5 5 3 2 2 2 1 1 0 1 1 2 2 2 2 1 1 1 1 1 1 1 1 1 2 2 1 1 1 1 1 1 0
6 5 6 6 7 7 6 5 6 5 5 6 5 5 3 2 2 1 1 1 1 2 2 2 2 1 1 1 0 1 1 2 1 1 1 1 1 1 1 2 1 1 1
6 6 8 8 7 6 5 5 5 5 5 5 7 6 4 2 1 1 2 1 1 1 1 1 1 1 1 1 1 2 2 1 1 1 1 1 1 1 1 1 2 1 1
6 5 5 5 5 5 5 5 5 4 4 5 6 6 6 5 4 3 2 1 1 1 1 2 1 1 1 1 1 1 2 1 1 1 1 1 1 1 1 1 1 2 2
5 5 5 5 5 5 5 5 6 5 5 6 6 6 6 7 6 5 3 3 1 1 1 1 1 1 1 1 1 2 1 1 1 1 1 1 1 1 1 1 1 1 2
4 5 5 5 5 6 6 6 6 5 5 6 6 5 6 5 4 5 4 4 3 2 2 2 2 1 1 2 2 2 1 1 1 1 1 0 0 1 1 2 1 1 2
4 4 4 5 5 5 5 6 6 5 5 6 5 4 4 4 3 3 3 3 2 2 2 2 2 1 1 2 2 1 1 1 1 1 1 1 1 1 1 1 2 2 1
2 2 3 4 5 5 5 5 5 6 5 5 5 4 4 4 4 4 3 3 2 2 2 2 2 2 1 1 2 1 1 1 0 0 0 0 0 0 1 1 1 2 2
3 3 2 3 4 3 4 4 4 4 4 4 4 4 4 4 4 4 3 3 2 3 3 3 2 2 2 2 2 1 1 1 0 1 1 1 0 0 0 0 1 1 1
3 2 2 2 3 3 3 4 4 4 4 5 4 4 4 4 4 3 3 3 3 3 3 2 2 2 2 2 2 2 2 1 1 1 0 1 0 0 0 0 1 1 2
3 2 2 2 2 3 3 4 4 5 4 5 5 4 4 4 4 3 3 3 3 2 2 2 2 2 2 2 2 2 2 2 2 2 1 2 1 0 1 1 1 1 1
3 2 2 1 1 2 2 3 4 4 4 4 5 4 4 4 4 4 3 3 3 3 3 2 2 2 2 2 2 2 2 2 2 2 2 2 2 2 2 1 1 1 1
3 2 2 1 1 1 1 1 1 2 3 4 4 4 4 3 3 3 3 3 3 3 3 2 2 2 2 2 2 2 2 2 2 2 2 2 2 2 2 1 2 2 1
3 2 2 1 1 1 1 2 2 2 4 5 4 3 3 3 3 3 3 3 2 2 2 2 2 2 3 3 4 3 2 2 2 3 2 2 2 3 3 2 2 3 3
2 2 2 2 1 1 2 2 2 2 3 4 3 3 3 3 2 3 3 3 3 2 2 2 2 3 3 3 3 3 2 2 2 2 2 2 2 2 2 2 2 2 3
2 1 1 1 1 1 2 2 2 3 3 3 3 3 3 2 2 2 3 3 2 3 2 2 3 3 3 3 3 3 2 2 2 2 3 3 3 2 1 1 2 2 3
1 1 1 1 2 2 2 3 3 3 2 2 1 2 2 2 2 3 3 3 2 2 2 2 2 2 2 3 3 3 2 1 2 2 3 3 3 3 1 1 2 3 3
2 2 2 3 3 1 2 4 2 2 1 1 1 2 2 3 3 3 3 2 2 2 2 1 2 3 3 2 3 3 2 2 1 1 2 3 3 3 3 2 2 3 4
2 3 3 3 1 1 3 3 2 1 2 1 1 1 2 3 3 2 2 2 2 2 1 1 2 2 2 2 3 3 2 3 2 2 2 2 3 3 4 3 4 5 4
3 3 3 2 2 2 3 2 1 1 1 1 0 0 1 1 2 2 2 2 2 2 1 1 1 1 2 2 3 4 4 3 3 3 2 3 3 3 3 3 3 4 3
2 2 2 2 2 2 2 1 1 1 1 1 0 0 0 0 1 2 3 2 2 2 2 2 2 2 2 2 3 4 4 3 2 2 3 3 3 3 2 3 3 2 2
1 1 2 2 1 1 0 1 1 0 1 0 1 0 1 1 1 2 2 3 3 3 3 3 3 2 2 2 2 2 2 2 2 2 2 2 2 2 2 2 2 2 2
0 1 1 1 1 1 1 1 1 1 1 1 1 1 1 1 1 2 2 3 4 4 4 4 4 4 4 5 5 4 3 2 2 1 0 1 1 1 1 1 1 1 2
0 0 0 0 1 1 1 2 1 1 1 1 1 1 1 1 1 1 2 2 2 3 4 5 4 4 6 5 5 6 5 5 4 2 1 2 2 3 3 3 3 2 3
Wind_Direction
212 190 185 178 163 165 175 182 178 175 156 149 156 160 186 205 201 187 110 117 112 109 104 80 65 70 74 65 73 87 72 43 37 69 39 24 31 42 23 288 211 230 242
203 197 183 179 178 184 186 188 189 181 177 177 168 161 155 167 190 244 63 93 103 105 116 116 105 81 76 58 56 74 83 41 38 83 79 20 359 5 9 349 250 278 263
205 203 198 190 185 192 193 196 194 184 182 171 136 111 84 66 59 19 12 39 110 119 118 123 113 93 95 87 53 75 116 108 36 51 119 138 227 316 339 344 2 357 351
211 210 206 199 197 202 195 188 182 177 178 166 160 160 161 173 194 183 169 67 92 114 120 123 126 121 112 111 101 96 117 130 105 40 44 110 158 161 324 339 349 1 15
210 211 208 204 202 195 184 184 175 176 173 170 172 167 161 162 148 125 115 83 62 91 109 116 117 125 122 128 108 92 95 115 137 137 115 84 61 90 158 292 328 342 331
211 212 210 189 189 184 175 172 170 184 178 175 173 171 164 158 151 150 149 139 105 76 98 120 133 142 153 156 134 112 100 106 113 117 117 140 145 174 164 205 282 303 308
200 196 190 185 188 184 182 177 176 184 180 177 179 181 176 171 173 174 171 166 167 181 203 159 147 156 173 155 129 117 114 124 125 140 150 161 195 188 176 177 235 287 308
198 200 195 186 190 192 186 180 178 183 180 180 182 180 180 179 175 173 173 178 183 195 190 169 164 169 159 148 131 118 146 123 137 142 158 157 232 202 186 180 179 270 308
207 205 194 183 185 188 186 182 177 175 178 180 173 173 176 166 161 162 166 172 180 185 165 163 163 164 152 148 140 135 163 131 144 169 175 191 236 203 214 195 189 187 246
199 199 198 189 187 185 179 171 175 176 176 171 172 171 168 160 155 150 156 167 174 165 150 159 164 155 141 133 124 125 126 115 114 155 74 4 312 243 214 205 210 206 208
184 185 191 180 176 166 164 166 171 168 168 172 171 169 166 163 156 161 172 174 174 175 174 176 170 163 157 152 145 162 149 136 71 41 80 335 308 37 292 179 188 207 201
161 155 145 126 143 155 162 169 171 173 179 175 167 173 162 153 160 172 175 171 172 180 183 177 170 171 159 163 169 188 173 168 182 230 212 279 272 21 351 337 218 228 218
141 124 108 114 138 161 173 176 177 179 176 164 164 164 167 169 177 183 180 174 175 183 187 173 178 185 184 191 196 189 188 201 217 223 229 247 214 254 276 270 256 247 237
128 112 97 122 150 154 172 180 185 182 169 158 160 170 181 185 186 189 188 187 180 181 190 185 185 188 185 190 195 192 192 208 230 237 238 238 217 222 234 236 237 235 234
136 140 151 155 136 141 160 150 157 156 155 154 163 177 178 177 173 182 189 187 190 195 190 179 182 190 200 203 193 199 204 214 241 257 257 251 244 241 242 244 225 214 217
172 164 160 156 162 174 176 154 154 153 149 157 169 172 164 170 182 189 190 186 194 195 182 188 192 207 226 222 209 200 202 219 234 252 268 273 267 281 281 277 240 207 204
180 175 172 173 183 193 163 154 176 161 152 157 163 162 163 174 194 196 190 199 198 193 204 208 200 216 233 224 219 210 199 216 230 240 259 276 283 300 286 293 292 261 242
157 169 158 139 119 109 105 118 122 124 140 153 166 162 157 179 195 196 210 211 201 201 208 211 209 216 235 226 223 215 206 221 237 239 247 255 269 273 273 289 303 283 267
144 146 139 120 80 90 107 100 92 102 119 150 176 177 175 179 191 209 221 216 201 208 210 209 201 209 243 225 212 187 183 219 244 252 252 251 252 262 243 232 271 287 287
89 85 83 82 70 50 99 111 117 120 155 205 213 204 193 192 205 217 215 209 195 206 197 212 216 215 232 229 209 185 182 217 248 261 260 252 255 250 233 218 232 262 278
90 87 83 81 81 90 106 110 114 205 239 242 198 195 211 211 208 203 192 183 187 183 193 216 241 234 237 230 210 203 196 209 225 238 252 264 269 254 252 236 233 247 256
70 82 84 61 46 83 102 102 240 270 323 74 103 202 232 228 195 176 184 181 179 189 212 228 267 275 261 233 220 212 214 207 209 233 243 252 257 256 266 254 252 257 256
70 84 100 68 30 51 122 165 289 352 59 80 85 226 263 227 194 188 191 188 187 199 220 226 242 265 274 258 232 218 215 207 212 240 254 261 262 262 260 264 259 245 230
107 113 110 97 17 342 328 245 275 105 118 198 288 280 229 246 225 210 202 199 202 206 213 220 234 247 253 251 238 223 217 213 224 251 274 280 281 285 291 296 270 244 231
138 134 137 142 246 290 295 293 286 127 148 229 264 282 268 243 242 237 226 222 223 213 208 218 212 216 237 245 234 217 220 219 221 210 282 319 309 306 306 295 287 268 253
143 101 163 237 269 277 282 287 280 168 174 259 281 278 271 266 258 257 296 296 249 242 228 223 217 231 234 240 230 227 225 219 199 174 218 240 245 249 256 259 266 262 257